RYL108 RPLL-RPVE

Flight info

Callsign RYL108
Flight time 0h 35m
Altitude 23000
Route VERDE2R VERDE W24 TAPER TAPER7A
Aircraft A320/M-SDE3FGHIRWY/LB1

Departure

Time 2026-05-01 08:48
Airport Ninoy Aquino International Airport (RPLL)

Arrival

Time 2026-05-01 09:23
Airport Godofredo P. Ramos Airport (RPVE)
Time Latitude Longitude Altitude Speed Heading
2026-05-01 08:37 14.50333 121.00189 63 ft 0 kts 273°
2026-05-01 08:42 14.50333 121.00194 69 ft 3 kts 273°
2026-05-01 08:42 14.50332 121.00221 66 ft 4 kts 273°
2026-05-01 08:42 14.50330 121.00248 66 ft 4 kts 270°
2026-05-01 08:43 14.50335 121.00273 64 ft 4 kts 227°
2026-05-01 08:43 14.50356 121.00285 62 ft 2 kts 185°
2026-05-01 08:43 14.50361 121.00285 63 ft 0 kts 185°
2026-05-01 08:45 14.50354 121.00284 62 ft 5 kts 185°
2026-05-01 08:45 14.50283 121.00279 63 ft 13 kts 182°
2026-05-01 08:45 14.50187 121.00319 66 ft 21 kts 152°
2026-05-01 08:46 14.50105 121.00306 63 ft 10 kts 246°
2026-05-01 08:46 14.50051 121.00210 66 ft 18 kts 240°
2026-05-01 08:46 14.49985 121.00091 67 ft 20 kts 240°
2026-05-01 08:46 14.49906 120.99969 67 ft 19 kts 207°
2026-05-01 08:47 14.49812 121.00035 68 ft 18 kts 97°
2026-05-01 08:47 14.49918 121.00246 59 ft 64 kts 60°
2026-05-01 08:47 14.50245 121.00835 60 ft 123 kts 60°
2026-05-01 08:47 14.50752 121.01744 113 ft 163 kts 63°
2026-05-01 08:48 14.51346 121.02745 687 ft 164 kts 62°
2026-05-01 08:48 14.51911 121.03764 1296 ft 163 kts 62°
2026-05-01 08:48 14.52469 121.04783 1860 ft 164 kts 62°
2026-05-01 08:48 14.53060 121.05864 2097 ft 184 kts 62°
2026-05-01 08:49 14.53728 121.07083 2288 ft 206 kts 62°
2026-05-01 08:49 14.54482 121.08455 2518 ft 231 kts 62°
2026-05-01 08:49 14.55172 121.10006 2861 ft 253 kts 79°
2026-05-01 08:49 14.55102 121.11840 3467 ft 263 kts 109°
2026-05-01 08:50 14.54107 121.13418 4265 ft 268 kts 139°
2026-05-01 08:50 14.52420 121.14238 5071 ft 275 kts 171°
2026-05-01 08:50 14.50489 121.14180 5903 ft 280 kts 184°
2026-05-01 08:50 14.48536 121.13968 6707 ft 284 kts 184°
2026-05-01 08:51 14.46560 121.13738 7475 ft 287 kts 185°
2026-05-01 08:51 14.44559 121.13502 8236 ft 291 kts 184°
2026-05-01 08:51 14.42536 121.13269 9025 ft 294 kts 184°
2026-05-01 08:51 14.40487 121.13038 9838 ft 299 kts 184°
2026-05-01 08:52 14.38387 121.12802 10377 ft 313 kts 183°
2026-05-01 08:52 14.36148 121.12557 10754 ft 327 kts 183°
2026-05-01 08:52 14.33975 121.12607 11996 ft 302 kts 163°
2026-05-01 08:52 14.32042 121.13200 13245 ft 278 kts 157°
2026-05-01 08:53 14.30252 121.13820 14225 ft 267 kts 158°
2026-05-01 08:53 14.28442 121.14484 14517 ft 287 kts 158°
2026-05-01 08:53 14.26485 121.15206 14676 ft 310 kts 158°
2026-05-01 08:53 14.24374 121.15971 14824 ft 333 kts 158°
2026-05-01 08:54 14.22119 121.16778 14940 ft 353 kts 158°
2026-05-01 08:54 14.19756 121.17620 15230 ft 363 kts 157°
2026-05-01 08:54 14.17384 121.18464 15714 ft 367 kts 158°
2026-05-01 08:54 14.14958 121.19327 16226 ft 371 kts 159°
2026-05-01 08:55 14.12511 121.20198 16762 ft 373 kts 159°
2026-05-01 08:55 14.10053 121.21079 17341 ft 375 kts 157°
2026-05-01 08:55 14.07580 121.21969 17917 ft 377 kts 158°
2026-05-01 08:55 14.05082 121.22868 18352 ft 381 kts 159°
2026-05-01 08:56 14.02558 121.23772 18773 ft 385 kts 159°
2026-05-01 08:56 14.00044 121.24670 19213 ft 388 kts 159°
2026-05-01 08:56 13.97487 121.25586 19700 ft 390 kts 158°
2026-05-01 08:56 13.94911 121.26508 20165 ft 394 kts 159°
2026-05-01 08:57 13.92316 121.27435 20626 ft 397 kts 159°
2026-05-01 08:57 13.89695 121.28368 21105 ft 399 kts 159°
2026-05-01 08:57 13.87057 121.29305 21576 ft 402 kts 159°
2026-05-01 08:57 13.84398 121.30252 22016 ft 406 kts 159°
2026-05-01 08:58 13.81718 121.31208 22441 ft 409 kts 159°
2026-05-01 08:58 13.79048 121.32164 22791 ft 412 kts 160°
2026-05-01 08:58 13.76338 121.33133 22873 ft 411 kts 160°
2026-05-01 08:58 13.73642 121.34100 22892 ft 409 kts 160°
2026-05-01 08:59 13.70961 121.35062 22891 ft 408 kts 160°
2026-05-01 08:59 13.68279 121.36021 22880 ft 408 kts 159°
2026-05-01 08:59 13.65590 121.36980 22889 ft 408 kts 160°
2026-05-01 08:59 13.62906 121.37933 22886 ft 408 kts 159°
2026-05-01 09:00 13.60223 121.38888 22886 ft 408 kts 159°
2026-05-01 09:00 13.57544 121.39843 22886 ft 408 kts 160°
2026-05-01 09:00 13.54862 121.40801 22886 ft 408 kts 159°
2026-05-01 09:00 13.52178 121.41758 22888 ft 408 kts 159°
2026-05-01 09:01 13.49533 121.42699 22889 ft 408 kts 159°
2026-05-01 09:01 13.46852 121.43654 22896 ft 408 kts 159°
2026-05-01 09:01 13.44173 121.44611 22893 ft 408 kts 159°
2026-05-01 09:01 13.41492 121.45567 22899 ft 408 kts 159°
2026-05-01 09:02 13.38808 121.46524 22891 ft 408 kts 159°
2026-05-01 09:02 13.36119 121.47482 22894 ft 408 kts 160°
2026-05-01 09:02 13.33437 121.48433 22886 ft 408 kts 159°
2026-05-01 09:02 13.30746 121.49385 22890 ft 409 kts 160°
2026-05-01 09:03 13.28061 121.50336 22901 ft 409 kts 160°
2026-05-01 09:03 13.25367 121.51292 22897 ft 409 kts 159°
2026-05-01 09:03 13.22679 121.52250 22893 ft 409 kts 159°
2026-05-01 09:03 13.20028 121.53196 22893 ft 409 kts 160°
2026-05-01 09:04 13.17299 121.54169 22901 ft 409 kts 160°
2026-05-01 09:04 13.14646 121.55113 22901 ft 410 kts 160°
2026-05-01 09:04 13.11951 121.56071 22908 ft 410 kts 160°
2026-05-01 09:04 13.09246 121.57033 22908 ft 410 kts 160°
2026-05-01 09:05 13.06555 121.57989 22912 ft 410 kts 160°
2026-05-01 09:05 13.04758 121.58626 22912 ft 410 kts 160°
2026-05-01 09:05 13.02059 121.59582 22911 ft 410 kts 160°
2026-05-01 09:05 12.99369 121.60534 22910 ft 410 kts 160°
2026-05-01 09:06 12.96670 121.61489 22907 ft 410 kts 160°
2026-05-01 09:06 12.93973 121.62442 22908 ft 410 kts 160°
2026-05-01 09:06 12.91278 121.63397 22903 ft 409 kts 160°
2026-05-01 09:06 12.88583 121.64353 22896 ft 409 kts 160°
2026-05-01 09:07 12.85898 121.65307 22775 ft 405 kts 160°
2026-05-01 09:07 12.83264 121.66242 22521 ft 397 kts 160°
2026-05-01 09:07 12.80709 121.67146 22273 ft 389 kts 160°
2026-05-01 09:07 12.78173 121.68043 21993 ft 383 kts 159°
2026-05-01 09:08 12.75660 121.68935 21537 ft 380 kts 159°
2026-05-01 09:08 12.73163 121.69819 21071 ft 378 kts 159°
2026-05-01 09:08 12.70680 121.70697 20605 ft 377 kts 159°
2026-05-01 09:08 12.68200 121.71574 20128 ft 376 kts 159°
2026-05-01 09:09 12.65737 121.72444 19658 ft 375 kts 158°
2026-05-01 09:09 12.63275 121.73315 19174 ft 373 kts 158°
2026-05-01 09:09 12.60025 121.74467 18539 ft 372 kts 158°
2026-05-01 09:09 12.58368 121.75054 18217 ft 372 kts 158°
2026-05-01 09:10 12.55925 121.75917 17694 ft 370 kts 158°
2026-05-01 09:10 12.53532 121.76764 17221 ft 367 kts 158°
2026-05-01 09:10 12.51127 121.77614 16747 ft 364 kts 158°
2026-05-01 09:10 12.48742 121.78456 16278 ft 361 kts 158°
2026-05-01 09:11 12.46374 121.79291 15814 ft 359 kts 158°
2026-05-01 09:11 12.44016 121.80124 15349 ft 357 kts 159°
2026-05-01 09:11 12.41673 121.80951 14887 ft 355 kts 159°
2026-05-01 09:11 12.39347 121.81770 14423 ft 353 kts 159°
2026-05-01 09:12 12.36952 121.82330 13965 ft 354 kts 173°
2026-05-01 09:12 12.34486 121.82285 13471 ft 355 kts 187°
2026-05-01 09:12 12.32070 121.81782 12984 ft 353 kts 190°
2026-05-01 09:12 12.29683 121.81257 12623 ft 347 kts 190°
2026-05-01 09:13 12.27332 121.80743 12184 ft 344 kts 190°
2026-05-01 09:13 12.25000 121.80239 11743 ft 342 kts 190°
2026-05-01 09:13 12.22706 121.79745 11300 ft 340 kts 189°
2026-05-01 09:13 12.20392 121.79247 10846 ft 339 kts 189°
2026-05-01 09:14 12.18087 121.78749 10416 ft 338 kts 189°
2026-05-01 09:14 12.15800 121.78253 10148 ft 331 kts 189°
2026-05-01 09:14 12.13586 121.77771 10030 ft 319 kts 189°
2026-05-01 09:14 12.11443 121.77304 9898 ft 310 kts 189°
2026-05-01 09:15 12.09346 121.76848 9585 ft 307 kts 189°
2026-05-01 09:15 12.07261 121.76397 9217 ft 305 kts 189°
2026-05-01 09:15 12.05190 121.75950 8882 ft 304 kts 189°
2026-05-01 09:15 12.03131 121.75504 8539 ft 302 kts 189°
2026-05-01 09:16 12.01109 121.75068 8204 ft 300 kts 189°
2026-05-01 09:16 11.99070 121.74627 7829 ft 297 kts 188°
2026-05-01 09:16 11.97049 121.74191 7123 ft 298 kts 188°
2026-05-01 09:17 11.93022 121.73324 6027 ft 288 kts 186°
2026-05-01 09:17 11.91089 121.73264 5640 ft 270 kts 166°
2026-05-01 09:17 11.87814 121.74620 4912 ft 245 kts 149°
2026-05-01 09:18 11.86318 121.75388 4561 ft 236 kts 148°
2026-05-01 09:18 11.84004 121.77307 3936 ft 205 kts 103°
2026-05-01 09:19 11.84790 121.79940 3356 ft 200 kts 61°
2026-05-01 09:19 11.85443 121.81189 3068 ft 199 kts 64°
2026-05-01 09:19 11.86059 121.82457 2782 ft 199 kts 64°
2026-05-01 09:20 11.87255 121.84932 2241 ft 185 kts 62°
2026-05-01 09:20 11.88315 121.87098 1781 ft 153 kts 62°
2026-05-01 09:21 11.89211 121.88907 1392 ft 137 kts 60°
2026-05-01 09:21 11.89641 121.89774 1206 ft 137 kts 62°
2026-05-01 09:21 11.90501 121.91513 867 ft 138 kts 63°
2026-05-01 09:22 11.91355 121.93241 460 ft 137 kts 60°
2026-05-01 09:22 11.92238 121.94963 58 ft 136 kts 63°
2026-05-01 09:23 11.92617 121.95720 26 ft 87 kts 63°
2026-05-01 09:23 11.92800 121.96110 28 ft 11 kts 116°
2026-05-01 09:24 11.92644 121.96196 26 ft 15 kts 162°
2026-05-01 09:24 11.92561 121.96237 26 ft 6 kts 116°
2026-05-01 09:24 11.92574 121.96272 26 ft 0 kts 61°
2026-05-01 09:25 11.92574 121.96273 26 ft 0 kts 61°